iso_date,epoch_date,Year,Hour,Min,DOY,POS_DOY,Lat,Lon,BP,Ts,Ta,has_bp,has_ts,has_ta,BuoyID,Buoy_Type,Buoy_Owner,Logistics,Hemisphere
2021-02-22T18:04:01Z,1614017042,2021,18,4,53.7528,53.7528,65.379,-30.761,995.8,4.53,-999.0,yes,yes,no,300234068241560,BD2GHI,AOML,BJARNI_SAEMUN,North
2021-02-22T19:01:03Z,1614020463,2021,19,1,53.7924,53.7924,65.365,-30.811,996.0,4.54,-999.0,yes,yes,no,300234068241560,BD2GHI,AOML,BJARNI_SAEMUN,North
2021-02-22T19:59:57Z,1614023997,2021,20,0,53.8333,53.8333,65.361,-30.842,996.3,4.1,-999.0,yes,yes,no,300234068241560,BD2GHI,AOML,BJARNI_SAEMUN,North
2021-02-22T21:00:00Z,1614027600,2021,21,0,53.875,53.875,65.356,-30.907,996.2,2.98,-999.0,yes,yes,no,300234068241560,BD2GHI,AOML,BJARNI_SAEMUN,North
2021-02-22T22:00:02Z,1614031203,2021,22,0,53.9167,53.9167,65.345,-30.945,996.1,3.87,-999.0,yes,yes,no,300234068241560,BD2GHI,AOML,BJARNI_SAEMUN,North
2021-02-22T22:59:57Z,1614034797,2021,23,0,53.9583,53.9583,65.335,-30.943,996.0,4.09,-999.0,yes,yes,no,300234068241560,BD2GHI,AOML,BJARNI_SAEMUN,North
2021-02-23T00:02:00Z,1614038521,2021,0,2,54.0014,54.0014,65.337,-30.944,995.9,4.15,-999.0,yes,yes,no,300234068241560,BD2GHI,AOML,BJARNI_SAEMUN,North
2021-02-23T01:00:02Z,1614042003,2021,1,0,54.0417,54.0417,65.343,-30.975,995.9,3.99,-999.0,yes,yes,no,300234068241560,BD2GHI,AOML,BJARNI_SAEMUN,North
2021-02-23T01:59:57Z,1614045597,2021,2,0,54.0833,54.0833,65.346,-31.025,995.4,3.26,-999.0,yes,yes,no,300234068241560,BD2GHI,AOML,BJARNI_SAEMUN,North
2021-02-23T03:00:00Z,1614049200,2021,3,0,54.125,54.125,65.354,-31.04,995.2,4.22,-999.0,yes,yes,no,300234068241560,BD2GHI,AOML,BJARNI_SAEMUN,North
2021-02-23T04:01:03Z,1614052863,2021,4,1,54.1674,54.1674,65.368,-31.095,994.7,4.09,-999.0,yes,yes,no,300234068241560,BD2GHI,AOML,BJARNI_SAEMUN,North
2021-02-23T05:02:58Z,1614056579,2021,5,3,54.2104,54.2104,65.376,-31.175,994.4,4.15,-999.0,yes,yes,no,300234068241560,BD2GHI,AOML,BJARNI_SAEMUN,North
2021-02-23T06:00:00Z,1614060000,2021,6,0,54.25,54.25,65.383,-31.22,994.2,4.24,-999.0,yes,yes,no,300234068241560,BD2GHI,AOML,BJARNI_SAEMUN,North
2021-02-23T07:00:02Z,1614063603,2021,7,0,54.2917,54.2917,65.391,-31.276,994.0,4.05,-999.0,yes,yes,no,300234068241560,BD2GHI,AOML,BJARNI_SAEMUN,North
2021-02-23T07:59:57Z,1614067197,2021,8,0,54.3333,54.3333,65.401,-31.345,993.7,3.98,-999.0,yes,yes,no,300234068241560,BD2GHI,AOML,BJARNI_SAEMUN,North
2021-02-23T09:00:00Z,1614070800,2021,9,0,54.375,54.375,65.405,-31.402,993.7,4.04,-999.0,yes,yes,no,300234068241560,BD2GHI,AOML,BJARNI_SAEMUN,North
2021-02-23T10:00:02Z,1614074403,2021,10,0,54.4167,54.4167,65.411,-31.44,993.3,4.09,-999.0,yes,yes,no,300234068241560,BD2GHI,AOML,BJARNI_SAEMUN,North
2021-02-23T10:59:57Z,1614077997,2021,11,0,54.4583,54.4583,65.422,-31.484,993.2,4.08,-999.0,yes,yes,no,300234068241560,BD2GHI,AOML,BJARNI_SAEMUN,North
2021-02-23T12:00:00Z,1614081600,2021,12,0,54.5,54.5,65.43,-31.534,993.1,4.1,-999.0,yes,yes,no,300234068241560,BD2GHI,AOML,BJARNI_SAEMUN,North
2021-02-23T13:00:02Z,1614085203,2021,13,0,54.5417,54.5417,65.433,-31.58,993.1,4.18,-999.0,yes,yes,no,300234068241560,BD2GHI,AOML,BJARNI_SAEMUN,North
2021-02-23T13:59:57Z,1614088797,2021,14,0,54.5833,54.5833,65.44,-31.628,993.2,4.08,-999.0,yes,yes,no,300234068241560,BD2GHI,AOML,BJARNI_SAEMUN,North
2021-02-23T15:00:00Z,1614092400,2021,15,0,54.625,54.625,65.453,-31.68,992.7,4.15,-999.0,yes,yes,no,300234068241560,BD2GHI,AOML,BJARNI_SAEMUN,North
2021-02-23T16:02:03Z,1614096124,2021,16,2,54.6681,54.6681,65.459,-31.739,992.4,4.14,-999.0,yes,yes,no,300234068241560,BD2GHI,AOML,BJARNI_SAEMUN,North
2021-02-23T16:59:57Z,1614099597,2021,17,0,54.7083,54.7083,65.463,-31.786,992.0,3.99,-999.0,yes,yes,no,300234068241560,BD2GHI,AOML,BJARNI_SAEMUN,North
2021-02-23T18:00:00Z,1614103200,2021,18,0,54.75,54.75,65.467,-31.834,991.8,3.96,-999.0,yes,yes,no,300234068241560,BD2GHI,AOML,BJARNI_SAEMUN,North
2021-02-23T19:00:02Z,1614106803,2021,19,0,54.7917,54.7917,65.471,-31.884,991.9,4.04,-999.0,yes,yes,no,300234068241560,BD2GHI,AOML,BJARNI_SAEMUN,North
2021-02-23T19:59:57Z,1614110397,2021,20,0,54.8333,54.8333,65.468,-31.936,992.2,4.05,-999.0,yes,yes,no,300234068241560,BD2GHI,AOML,BJARNI_SAEMUN,North
2021-02-23T21:00:00Z,1614114000,2021,21,0,54.875,54.875,65.469,-31.975,992.3,4.02,-999.0,yes,yes,no,300234068241560,BD2GHI,AOML,BJARNI_SAEMUN,North
2021-02-23T22:00:02Z,1614117603,2021,22,0,54.9167,54.9167,65.472,-32.01,992.3,4.0,-999.0,yes,yes,no,300234068241560,BD2GHI,AOML,BJARNI_SAEMUN,North
2021-02-23T22:59:57Z,1614121197,2021,23,0,54.9583,54.9583,65.474,-32.058,992.6,4.06,-999.0,yes,yes,no,300234068241560,BD2GHI,AOML,BJARNI_SAEMUN,North
2021-02-24T00:00:00Z,1614124800,2021,0,0,55.0,55.0,65.474,-32.106,992.7,4.09,-999.0,yes,yes,no,300234068241560,BD2GHI,AOML,BJARNI_SAEMUN,North
2021-02-24T01:00:02Z,1614128403,2021,1,0,55.0417,55.0417,65.471,-32.15,992.9,4.12,-999.0,yes,yes,no,300234068241560,BD2GHI,AOML,BJARNI_SAEMUN,North
2021-02-24T01:59:57Z,1614131997,2021,2,0,55.0833,55.0833,65.468,-32.2,992.9,4.11,-999.0,yes,yes,no,300234068241560,BD2GHI,AOML,BJARNI_SAEMUN,North
2021-02-24T03:00:00Z,1614135600,2021,3,0,55.125,55.125,65.461,-32.261,992.8,4.09,-999.0,yes,yes,no,300234068241560,BD2GHI,AOML,BJARNI_SAEMUN,North
2021-02-24T04:00:02Z,1614139203,2021,4,0,55.1667,55.1667,65.446,-32.322,992.7,4.09,-999.0,yes,yes,no,300234068241560,BD2GHI,AOML,BJARNI_SAEMUN,North
2021-02-24T05:00:57Z,1614142858,2021,5,1,55.209,55.209,65.432,-32.371,992.9,4.11,-999.0,yes,yes,no,300234068241560,BD2GHI,AOML,BJARNI_SAEMUN,North
2021-02-24T07:00:02Z,1614150003,2021,7,0,55.2917,55.2917,65.421,-32.446,993.5,3.97,-999.0,yes,yes,no,300234068241560,BD2GHI,AOML,BJARNI_SAEMUN,North
2021-02-24T07:59:57Z,1614153597,2021,8,0,55.3333,55.3333,65.41,-32.505,993.9,4.07,-999.0,yes,yes,no,300234068241560,BD2GHI,AOML,BJARNI_SAEMUN,North
2021-02-24T09:00:00Z,1614157200,2021,9,0,55.375,55.375,65.403,-32.554,994.5,4.09,-999.0,yes,yes,no,300234068241560,BD2GHI,AOML,BJARNI_SAEMUN,North
2021-02-24T10:00:02Z,1614160803,2021,10,0,55.4167,55.4167,65.398,-32.588,995.2,4.04,-999.0,yes,yes,no,300234068241560,BD2GHI,AOML,BJARNI_SAEMUN,North
2021-02-24T10:59:57Z,1614164397,2021,11,0,55.4583,55.4583,65.393,-32.623,995.4,4.03,-999.0,yes,yes,no,300234068241560,BD2GHI,AOML,BJARNI_SAEMUN,North
2021-02-24T12:00:00Z,1614168000,2021,12,0,55.5,55.5,65.385,-32.67,995.5,4.07,-999.0,yes,yes,no,300234068241560,BD2GHI,AOML,BJARNI_SAEMUN,North
2021-02-24T13:00:02Z,1614171603,2021,13,0,55.5417,55.5417,65.378,-32.72,995.9,4.07,-999.0,yes,yes,no,300234068241560,BD2GHI,AOML,BJARNI_SAEMUN,North
2021-02-24T13:59:57Z,1614175197,2021,14,0,55.5833,55.5833,65.373,-32.758,996.2,4.04,-999.0,yes,yes,no,300234068241560,BD2GHI,AOML,BJARNI_SAEMUN,North
2021-02-24T15:00:00Z,1614178800,2021,15,0,55.625,55.625,65.37,-32.792,996.1,3.97,-999.0,yes,yes,no,300234068241560,BD2GHI,AOML,BJARNI_SAEMUN,North
2021-02-24T16:02:03Z,1614182524,2021,16,2,55.6681,55.6681,65.372,-32.835,996.4,4.02,-999.0,yes,yes,no,300234068241560,BD2GHI,AOML,BJARNI_SAEMUN,North
2021-02-24T16:59:57Z,1614185997,2021,17,0,55.7083,55.7083,65.371,-32.893,996.5,4.05,-999.0,yes,yes,no,300234068241560,BD2GHI,AOML,BJARNI_SAEMUN,North
2021-02-24T18:00:00Z,1614189600,2021,18,0,55.75,55.75,65.369,-32.955,997.2,4.03,-999.0,yes,yes,no,300234068241560,BD2GHI,AOML,BJARNI_SAEMUN,North
2021-02-24T19:00:02Z,1614193203,2021,19,0,55.7917,55.7917,65.362,-33.018,997.8,4.05,-999.0,yes,yes,no,300234068241560,BD2GHI,AOML,BJARNI_SAEMUN,North
2021-02-24T20:01:58Z,1614196918,2021,20,2,55.8347,55.8347,65.352,-33.064,998.5,4.03,-999.0,yes,yes,no,300234068241560,BD2GHI,AOML,BJARNI_SAEMUN,North
2021-02-24T21:01:00Z,1614200460,2021,21,1,55.8757,55.8757,65.343,-33.116,998.9,4.01,-999.0,yes,yes,no,300234068241560,BD2GHI,AOML,BJARNI_SAEMUN,North
2021-02-24T22:00:02Z,1614204003,2021,22,0,55.9167,55.9167,65.337,-33.173,999.3,4.07,-999.0,yes,yes,no,300234068241560,BD2GHI,AOML,BJARNI_SAEMUN,North
2021-02-24T22:59:57Z,1614207597,2021,23,0,55.9583,55.9583,65.33,-33.234,999.5,4.06,-999.0,yes,yes,no,300234068241560,BD2GHI,AOML,BJARNI_SAEMUN,North
2021-02-25T00:00:00Z,1614211200,2021,0,0,56.0,56.0,65.323,-33.298,1000.1,4.16,-999.0,yes,yes,no,300234068241560,BD2GHI,AOML,BJARNI_SAEMUN,North
2021-02-25T01:00:02Z,1614214803,2021,1,0,56.0417,56.0417,65.315,-33.353,1000.4,4.17,-999.0,yes,yes,no,300234068241560,BD2GHI,AOML,BJARNI_SAEMUN,North
2021-02-25T01:59:57Z,1614218397,2021,2,0,56.0833,56.0833,65.309,-33.399,1000.5,4.21,-999.0,yes,yes,no,300234068241560,BD2GHI,AOML,BJARNI_SAEMUN,North
2021-02-25T03:04:01Z,1614222242,2021,3,4,56.1278,56.1278,65.305,-33.431,1000.6,4.17,-999.0,yes,yes,no,300234068241560,BD2GHI,AOML,BJARNI_SAEMUN,North
2021-02-25T04:03:56Z,1614225836,2021,4,4,56.1694,56.1694,65.295,-33.469,1000.4,4.19,-999.0,yes,yes,no,300234068241560,BD2GHI,AOML,BJARNI_SAEMUN,North
2021-02-25T05:03:59Z,1614229439,2021,5,4,56.2111,56.2111,65.279,-33.514,1000.4,4.2,-999.0,yes,yes,no,300234068241560,BD2GHI,AOML,BJARNI_SAEMUN,North
2021-02-25T06:04:01Z,1614233042,2021,6,4,56.2528,56.2528,65.264,-33.573,1000.5,4.21,-999.0,yes,yes,no,300234068241560,BD2GHI,AOML,BJARNI_SAEMUN,North
2021-02-25T07:03:56Z,1614236636,2021,7,4,56.2944,56.2944,65.247,-33.64,1000.5,4.2,-999.0,yes,yes,no,300234068241560,BD2GHI,AOML,BJARNI_SAEMUN,North
2021-02-25T08:01:58Z,1614240118,2021,8,2,56.3347,56.3347,65.24,-33.716,1000.8,4.18,-999.0,yes,yes,no,300234068241560,BD2GHI,AOML,BJARNI_SAEMUN,North
2021-02-25T09:03:01Z,1614243781,2021,9,3,56.3771,56.3771,65.234,-33.786,1000.8,4.21,-999.0,yes,yes,no,300234068241560,BD2GHI,AOML,BJARNI_SAEMUN,North
2021-02-25T10:00:02Z,1614247203,2021,10,0,56.4167,56.4167,65.231,-33.846,1000.8,4.56,-999.0,yes,yes,no,300234068241560,BD2GHI,AOML,BJARNI_SAEMUN,North
2021-02-25T10:59:57Z,1614250797,2021,11,0,56.4583,56.4583,65.23,-33.905,1000.9,4.64,-999.0,yes,yes,no,300234068241560,BD2GHI,AOML,BJARNI_SAEMUN,North
2021-02-25T12:00:00Z,1614254400,2021,12,0,56.5,56.5,65.232,-33.958,1000.5,4.78,-999.0,yes,yes,no,300234068241560,BD2GHI,AOML,BJARNI_SAEMUN,North
2021-02-25T13:03:56Z,1614258236,2021,13,4,56.5444,56.5444,65.238,-34.017,1000.7,5.15,-999.0,yes,yes,no,300234068241560,BD2GHI,AOML,BJARNI_SAEMUN,North
2021-02-25T14:03:59Z,1614261839,2021,14,4,56.5861,56.5861,65.247,-34.068,1000.0,5.18,-999.0,yes,yes,no,300234068241560,BD2GHI,AOML,BJARNI_SAEMUN,North
2021-02-25T15:04:01Z,1614265442,2021,15,4,56.6278,56.6278,65.255,-34.114,999.3,5.11,-999.0,yes,yes,no,300234068241560,BD2GHI,AOML,BJARNI_SAEMUN,North
2021-02-25T16:03:56Z,1614269036,2021,16,4,56.6694,56.6694,65.265,-34.147,998.3,5.0,-999.0,yes,yes,no,300234068241560,BD2GHI,AOML,BJARNI_SAEMUN,North
2021-02-25T18:04:01Z,1614276242,2021,18,4,56.7528,56.7528,65.287,-34.226,996.3,5.0,-999.0,yes,yes,no,300234068241560,BD2GHI,AOML,BJARNI_SAEMUN,North
2021-02-25T19:02:03Z,1614279724,2021,19,2,56.7931,56.7931,65.293,-34.258,995.8,5.03,-999.0,yes,yes,no,300234068241560,BD2GHI,AOML,BJARNI_SAEMUN,North
2021-02-25T19:59:57Z,1614283197,2021,20,0,56.8333,56.8333,65.302,-34.284,994.7,5.0,-999.0,yes,yes,no,300234068241560,BD2GHI,AOML,BJARNI_SAEMUN,North
2021-02-25T21:03:01Z,1614286981,2021,21,3,56.8771,56.8771,65.311,-34.302,993.8,4.7,-999.0,yes,yes,no,300234068241560,BD2GHI,AOML,BJARNI_SAEMUN,North
2021-02-25T22:03:56Z,1614290636,2021,22,4,56.9194,56.9194,65.318,-34.319,992.6,4.64,-999.0,yes,yes,no,300234068241560,BD2GHI,AOML,BJARNI_SAEMUN,North
2021-02-25T23:03:59Z,1614294239,2021,23,4,56.9611,56.9611,-90.0,-180.0,991.3,4.58,-999.0,yes,yes,no,300234068241560,BD2GHI,AOML,BJARNI_SAEMUN,North
2021-02-26T01:03:56Z,1614301436,2021,1,4,57.0444,57.0444,-90.0,-180.0,988.3,4.49,-999.0,yes,yes,no,300234068241560,BD2GHI,AOML,BJARNI_SAEMUN,North
2021-02-26T02:00:57Z,1614304858,2021,2,1,57.084,57.084,65.343,-34.403,987.2,4.45,-999.0,yes,yes,no,300234068241560,BD2GHI,AOML,BJARNI_SAEMUN,North
2021-02-26T03:00:00Z,1614308400,2021,3,0,57.125,57.125,65.348,-34.426,986.3,4.4,-999.0,yes,yes,no,300234068241560,BD2GHI,AOML,BJARNI_SAEMUN,North
2021-02-26T04:01:03Z,1614312063,2021,4,1,57.1674,57.1674,65.351,-34.446,985.4,4.27,-999.0,yes,yes,no,300234068241560,BD2GHI,AOML,BJARNI_SAEMUN,North
2021-02-26T04:59:57Z,1614315597,2021,5,0,57.2083,57.2083,65.35,-34.466,984.2,4.2,-999.0,yes,yes,no,300234068241560,BD2GHI,AOML,BJARNI_SAEMUN,North
2021-02-26T06:04:01Z,1614319442,2021,6,4,57.2528,57.2528,65.347,-34.497,984.7,4.19,-999.0,yes,yes,no,300234068241560,BD2GHI,AOML,BJARNI_SAEMUN,North
2021-02-26T07:00:02Z,1614322803,2021,7,0,57.2917,57.2917,65.344,-34.518,984.8,4.18,-999.0,yes,yes,no,300234068241560,BD2GHI,AOML,BJARNI_SAEMUN,North
2021-02-26T07:59:57Z,1614326397,2021,8,0,57.3333,57.3333,65.34,-34.542,984.7,4.2,-999.0,yes,yes,no,300234068241560,BD2GHI,AOML,BJARNI_SAEMUN,North
2021-02-26T09:00:00Z,1614330000,2021,9,0,57.375,57.375,65.333,-34.568,985.1,4.24,-999.0,yes,yes,no,300234068241560,BD2GHI,AOML,BJARNI_SAEMUN,North
2021-02-26T10:02:03Z,1614333724,2021,10,2,57.4181,57.4181,65.331,-34.591,985.9,4.27,-999.0,yes,yes,no,300234068241560,BD2GHI,AOML,BJARNI_SAEMUN,North
2021-02-26T11:03:59Z,1614337439,2021,11,4,57.4611,57.4611,-90.0,-180.0,986.2,4.32,-999.0,yes,yes,no,300234068241560,BD2GHI,AOML,BJARNI_SAEMUN,North
2021-02-26T12:04:01Z,1614341042,2021,12,4,57.5028,57.5028,-90.0,-180.0,986.1,4.39,-999.0,yes,yes,no,300234068241560,BD2GHI,AOML,BJARNI_SAEMUN,North
2021-02-26T13:03:56Z,1614344636,2021,13,4,57.5444,57.5444,-90.0,-180.0,985.8,4.46,-999.0,yes,yes,no,300234068241560,BD2GHI,AOML,BJARNI_SAEMUN,North
2021-02-26T14:03:59Z,1614348239,2021,14,4,57.5861,57.5861,-90.0,-180.0,985.8,4.54,-999.0,yes,yes,no,300234068241560,BD2GHI,AOML,BJARNI_SAEMUN,North
2021-02-26T15:04:01Z,1614351842,2021,15,4,57.6278,57.6278,-90.0,-180.0,985.6,4.59,-999.0,yes,yes,no,300234068241560,BD2GHI,AOML,BJARNI_SAEMUN,North
2021-02-26T16:03:56Z,1614355436,2021,16,4,57.6694,57.6694,-90.0,-180.0,985.4,4.67,-999.0,yes,yes,no,300234068241560,BD2GHI,AOML,BJARNI_SAEMUN,North
2021-02-26T17:03:59Z,1614359039,2021,17,4,57.7111,57.7111,65.299,-34.758,985.3,4.68,-999.0,yes,yes,no,300234068241560,BD2GHI,AOML,BJARNI_SAEMUN,North
2021-02-26T18:00:00Z,1614362400,2021,18,0,57.75,57.75,65.292,-34.783,986.3,4.7,-999.0,yes,yes,no,300234068241560,BD2GHI,AOML,BJARNI_SAEMUN,North
2021-02-26T19:00:02Z,1614366003,2021,19,0,57.7917,57.7917,65.285,-34.809,987.0,4.74,-999.0,yes,yes,no,300234068241560,BD2GHI,AOML,BJARNI_SAEMUN,North
2021-02-26T19:59:57Z,1614369597,2021,20,0,57.8333,57.8333,65.28,-34.826,987.5,4.76,-999.0,yes,yes,no,300234068241560,BD2GHI,AOML,BJARNI_SAEMUN,North
2021-02-26T21:04:01Z,1614373442,2021,21,4,57.8778,57.8778,65.268,-34.843,988.5,4.77,-999.0,yes,yes,no,300234068241560,BD2GHI,AOML,BJARNI_SAEMUN,North
2021-02-26T22:03:56Z,1614377036,2021,22,4,57.9194,57.9194,-90.0,-180.0,989.4,4.75,-999.0,yes,yes,no,300234068241560,BD2GHI,AOML,BJARNI_SAEMUN,North
2021-02-26T23:03:59Z,1614380639,2021,23,4,57.9611,57.9611,-90.0,-180.0,989.3,4.79,-999.0,yes,yes,no,300234068241560,BD2GHI,AOML,BJARNI_SAEMUN,North
2021-02-27T00:02:00Z,1614384121,2021,0,2,58.0014,58.0014,65.267,-34.862,989.6,4.81,-999.0,yes,yes,no,300234068241560,BD2GHI,AOML,BJARNI_SAEMUN,North
2021-02-27T01:00:02Z,1614387603,2021,1,0,58.0417,58.0417,65.265,-34.871,989.5,4.78,-999.0,yes,yes,no,300234068241560,BD2GHI,AOML,BJARNI_SAEMUN,North
2021-02-27T01:59:57Z,1614391197,2021,2,0,58.0833,58.0833,65.264,-34.883,988.7,4.78,-999.0,yes,yes,no,300234068241560,BD2GHI,AOML,BJARNI_SAEMUN,North
2021-02-27T03:00:00Z,1614394800,2021,3,0,58.125,58.125,65.265,-34.899,987.6,4.82,-999.0,yes,yes,no,300234068241560,BD2GHI,AOML,BJARNI_SAEMUN,North
2021-02-27T04:03:56Z,1614398636,2021,4,4,58.1694,58.1694,-90.0,-180.0,986.7,4.78,-999.0,yes,yes,no,300234068241560,BD2GHI,AOML,BJARNI_SAEMUN,North
2021-02-27T05:01:58Z,1614402118,2021,5,2,58.2097,58.2097,65.255,-34.918,984.8,5.18,-999.0,yes,yes,no,300234068241560,BD2GHI,AOML,BJARNI_SAEMUN,North
2021-02-27T06:00:00Z,1614405600,2021,6,0,58.25,58.25,65.248,-34.925,983.3,5.3,-999.0,yes,yes,no,300234068241560,BD2GHI,AOML,BJARNI_SAEMUN,North
2021-02-27T07:00:02Z,1614409203,2021,7,0,58.2917,58.2917,65.24,-34.935,982.0,5.34,-999.0,yes,yes,no,300234068241560,BD2GHI,AOML,BJARNI_SAEMUN,North
2021-02-27T08:03:59Z,1614413039,2021,8,4,58.3361,58.3361,65.225,-34.959,980.7,5.45,-999.0,yes,yes,no,300234068241560,BD2GHI,AOML,BJARNI_SAEMUN,North
2021-02-27T09:04:01Z,1614416642,2021,9,4,58.3778,58.3778,65.22,-34.982,979.1,5.5,-999.0,yes,yes,no,300234068241560,BD2GHI,AOML,BJARNI_SAEMUN,North
2021-02-27T10:03:56Z,1614420236,2021,10,4,58.4194,58.4194,65.209,-34.999,979.8,5.62,-999.0,yes,yes,no,300234068241560,BD2GHI,AOML,BJARNI_SAEMUN,North
2021-02-27T11:02:58Z,1614423779,2021,11,3,58.4604,58.4604,65.203,-35.01,980.5,5.61,-999.0,yes,yes,no,300234068241560,BD2GHI,AOML,BJARNI_SAEMUN,North
2021-02-27T12:00:00Z,1614427200,2021,12,0,58.5,58.5,65.197,-35.022,980.5,5.59,-999.0,yes,yes,no,300234068241560,BD2GHI,AOML,BJARNI_SAEMUN,North
2021-02-27T13:00:02Z,1614430803,2021,13,0,58.5417,58.5417,65.192,-35.034,980.4,5.59,-999.0,yes,yes,no,300234068241560,BD2GHI,AOML,BJARNI_SAEMUN,North
2021-02-27T14:03:59Z,1614434639,2021,14,4,58.5861,58.5861,-90.0,-180.0,980.8,5.54,-999.0,yes,yes,no,300234068241560,BD2GHI,AOML,BJARNI_SAEMUN,North
2021-02-27T15:04:01Z,1614438242,2021,15,4,58.6278,58.6278,65.18,-35.063,980.1,5.54,-999.0,yes,yes,no,300234068241560,BD2GHI,AOML,BJARNI_SAEMUN,North
2021-02-27T16:00:02Z,1614441603,2021,16,0,58.6667,58.6667,65.176,-35.083,980.5,5.59,-999.0,yes,yes,no,300234068241560,BD2GHI,AOML,BJARNI_SAEMUN,North
2021-02-27T17:03:59Z,1614445439,2021,17,4,58.7111,58.7111,65.193,-35.1,980.7,5.58,-999.0,yes,yes,no,300234068241560,BD2GHI,AOML,BJARNI_SAEMUN,North
2021-02-27T18:00:00Z,1614448800,2021,18,0,58.75,58.75,65.162,-35.123,981.4,5.6,-999.0,yes,yes,no,300234068241560,BD2GHI,AOML,BJARNI_SAEMUN,North
2021-02-27T19:00:02Z,1614452403,2021,19,0,58.7917,58.7917,65.16,-35.141,982.2,5.61,-999.0,yes,yes,no,300234068241560,BD2GHI,AOML,BJARNI_SAEMUN,North
2021-02-27T20:01:58Z,1614456118,2021,20,2,58.8347,58.8347,65.155,-35.147,983.2,5.61,-999.0,yes,yes,no,300234068241560,BD2GHI,AOML,BJARNI_SAEMUN,North
2021-02-27T21:04:01Z,1614459842,2021,21,4,58.8778,58.8778,65.143,-35.156,984.0,5.61,-999.0,yes,yes,no,300234068241560,BD2GHI,AOML,BJARNI_SAEMUN,North
2021-02-27T22:02:03Z,1614463324,2021,22,2,58.9181,58.9181,65.141,-35.167,984.5,5.61,-999.0,yes,yes,no,300234068241560,BD2GHI,AOML,BJARNI_SAEMUN,North
2021-02-28T00:00:00Z,1614470400,2021,0,0,59.0,59.0,65.127,-35.179,986.0,5.59,-999.0,yes,yes,no,300234068241560,BD2GHI,AOML,BJARNI_SAEMUN,North
2021-02-28T01:00:02Z,1614474003,2021,1,0,59.0417,59.0417,65.122,-35.19,987.3,5.58,-999.0,yes,yes,no,300234068241560,BD2GHI,AOML,BJARNI_SAEMUN,North
2021-02-28T02:03:59Z,1614477839,2021,2,4,59.0861,59.0861,-90.0,-180.0,988.5,5.58,-999.0,yes,yes,no,300234068241560,BD2GHI,AOML,BJARNI_SAEMUN,North
2021-02-28T03:04:01Z,1614481442,2021,3,4,59.1278,59.1278,65.106,-35.211,988.8,5.57,-999.0,yes,yes,no,300234068241560,BD2GHI,AOML,BJARNI_SAEMUN,North
2021-02-28T04:01:03Z,1614484863,2021,4,1,59.1674,59.1674,65.107,-35.224,989.4,5.57,-999.0,yes,yes,no,300234068241560,BD2GHI,AOML,BJARNI_SAEMUN,North
2021-02-28T04:59:57Z,1614488397,2021,5,0,59.2083,59.2083,65.097,-35.234,989.5,5.53,-999.0,yes,yes,no,300234068241560,BD2GHI,AOML,BJARNI_SAEMUN,North
2021-02-28T06:01:00Z,1614492060,2021,6,1,59.2507,59.2507,65.091,-35.245,990.0,5.55,-999.0,yes,yes,no,300234068241560,BD2GHI,AOML,BJARNI_SAEMUN,North
2021-02-28T07:00:02Z,1614495603,2021,7,0,59.2917,59.2917,65.084,-35.263,991.0,5.54,-999.0,yes,yes,no,300234068241560,BD2GHI,AOML,BJARNI_SAEMUN,North
2021-02-28T08:02:58Z,1614499379,2021,8,3,59.3354,59.3354,65.074,-35.282,992.1,5.51,-999.0,yes,yes,no,300234068241560,BD2GHI,AOML,BJARNI_SAEMUN,North
2021-02-28T09:04:01Z,1614503042,2021,9,4,59.3778,59.3778,65.07,-35.303,993.3,5.51,-999.0,yes,yes,no,300234068241560,BD2GHI,AOML,BJARNI_SAEMUN,North
2021-02-28T10:02:03Z,1614506524,2021,10,2,59.4181,59.4181,65.064,-35.316,994.7,5.5,-999.0,yes,yes,no,300234068241560,BD2GHI,AOML,BJARNI_SAEMUN,North
2021-02-28T10:59:57Z,1614509997,2021,11,0,59.4583,59.4583,65.058,-35.33,995.9,5.49,-999.0,yes,yes,no,300234068241560,BD2GHI,AOML,BJARNI_SAEMUN,North
2021-02-28T12:00:00Z,1614513600,2021,12,0,59.5,59.5,65.051,-35.343,996.4,5.49,-999.0,yes,yes,no,300234068241560,BD2GHI,AOML,BJARNI_SAEMUN,North
2021-02-28T13:00:02Z,1614517203,2021,13,0,59.5417,59.5417,65.045,-35.357,997.4,5.48,-999.0,yes,yes,no,300234068241560,BD2GHI,AOML,BJARNI_SAEMUN,North
2021-02-28T13:59:57Z,1614520797,2021,14,0,59.5833,59.5833,65.04,-35.373,998.3,5.5,-999.0,yes,yes,no,300234068241560,BD2GHI,AOML,BJARNI_SAEMUN,North
2021-02-28T15:00:00Z,1614524400,2021,15,0,59.625,59.625,65.032,-35.38,998.5,5.5,-999.0,yes,yes,no,300234068241560,BD2GHI,AOML,BJARNI_SAEMUN,North
2021-02-28T16:03:56Z,1614528236,2021,16,4,59.6694,59.6694,65.035,-35.4,998.9,5.5,-999.0,yes,yes,no,300234068241560,BD2GHI,AOML,BJARNI_SAEMUN,North
2021-02-28T17:00:57Z,1614531658,2021,17,1,59.709,59.709,65.033,-35.415,999.3,5.52,-999.0,yes,yes,no,300234068241560,BD2GHI,AOML,BJARNI_SAEMUN,North
2021-02-28T18:00:00Z,1614535200,2021,18,0,59.75,59.75,65.032,-35.426,999.2,5.52,-999.0,yes,yes,no,300234068241560,BD2GHI,AOML,BJARNI_SAEMUN,North
2021-02-28T19:00:02Z,1614538803,2021,19,0,59.7917,59.7917,65.03,-35.434,999.8,5.53,-999.0,yes,yes,no,300234068241560,BD2GHI,AOML,BJARNI_SAEMUN,North
2021-02-28T20:03:59Z,1614542639,2021,20,4,59.8361,59.8361,-90.0,-180.0,1000.9,5.53,-999.0,yes,yes,no,300234068241560,BD2GHI,AOML,BJARNI_SAEMUN,North
2021-02-28T21:04:01Z,1614546242,2021,21,4,59.8778,59.8778,-90.0,-180.0,1001.9,5.54,-999.0,yes,yes,no,300234068241560,BD2GHI,AOML,BJARNI_SAEMUN,North
2021-02-28T22:03:56Z,1614549836,2021,22,4,59.9194,59.9194,65.015,-35.452,1002.6,5.53,-999.0,yes,yes,no,300234068241560,BD2GHI,AOML,BJARNI_SAEMUN,North
2021-02-28T23:03:59Z,1614553439,2021,23,4,59.9611,59.9611,65.009,-35.454,1003.3,5.53,-999.0,yes,yes,no,300234068241560,BD2GHI,AOML,BJARNI_SAEMUN,North
2021-03-01T00:00:00Z,1614556800,2021,0,0,60.0,60.0,65.004,-35.454,1003.6,5.53,-999.0,yes,yes,no,300234068241560,BD2GHI,AOML,BJARNI_SAEMUN,North
2021-03-01T01:00:02Z,1614560403,2021,1,0,60.0417,60.0417,64.999,-35.452,1004.8,5.53,-999.0,yes,yes,no,300234068241560,BD2GHI,AOML,BJARNI_SAEMUN,North
2021-03-01T02:02:58Z,1614564179,2021,2,3,60.0854,60.0854,64.995,-35.451,1005.7,5.5,-999.0,yes,yes,no,300234068241560,BD2GHI,AOML,BJARNI_SAEMUN,North
2021-03-01T03:00:00Z,1614567600,2021,3,0,60.125,60.125,64.991,-35.449,1006.1,5.43,-999.0,yes,yes,no,300234068241560,BD2GHI,AOML,BJARNI_SAEMUN,North
2021-03-01T04:00:02Z,1614571203,2021,4,0,60.1667,60.1667,64.987,-35.449,1006.8,5.39,-999.0,yes,yes,no,300234068241560,BD2GHI,AOML,BJARNI_SAEMUN,North
2021-03-01T04:59:57Z,1614574797,2021,5,0,60.2083,60.2083,64.982,-35.447,1007.4,5.26,-999.0,yes,yes,no,300234068241560,BD2GHI,AOML,BJARNI_SAEMUN,North
2021-03-01T06:04:01Z,1614578642,2021,6,4,60.2528,60.2528,64.976,-35.44,1008.2,5.06,-999.0,yes,yes,no,300234068241560,BD2GHI,AOML,BJARNI_SAEMUN,North
2021-03-01T07:00:02Z,1614582003,2021,7,0,60.2917,60.2917,64.97,-35.438,1009.2,4.97,-999.0,yes,yes,no,300234068241560,BD2GHI,AOML,BJARNI_SAEMUN,North
2021-03-01T07:59:57Z,1614585597,2021,8,0,60.3333,60.3333,64.961,-35.438,1009.8,5.16,-999.0,yes,yes,no,300234068241560,BD2GHI,AOML,BJARNI_SAEMUN,North
2021-03-01T09:04:01Z,1614589442,2021,9,4,60.3778,60.3778,64.95,-35.436,1011.1,5.14,-999.0,yes,yes,no,300234068241560,BD2GHI,AOML,BJARNI_SAEMUN,North
2021-03-01T10:00:02Z,1614592803,2021,10,0,60.4167,60.4167,64.939,-35.433,1012.2,5.27,-999.0,yes,yes,no,300234068241560,BD2GHI,AOML,BJARNI_SAEMUN,North
2021-03-01T10:59:57Z,1614596397,2021,11,0,60.4583,60.4583,64.928,-35.43,1013.3,5.15,-999.0,yes,yes,no,300234068241560,BD2GHI,AOML,BJARNI_SAEMUN,North
2021-03-01T12:00:00Z,1614600000,2021,12,0,60.5,60.5,64.918,-35.429,1014.4,5.22,-999.0,yes,yes,no,300234068241560,BD2GHI,AOML,BJARNI_SAEMUN,North
2021-03-01T13:00:02Z,1614603603,2021,13,0,60.5417,60.5417,64.907,-35.428,1015.0,5.24,-999.0,yes,yes,no,300234068241560,BD2GHI,AOML,BJARNI_SAEMUN,North